Location: Unspecified
(50.0830°N, 0.0000°E)
Time: 03:12:47
(UTC+00:00)

N. Korean satellite - Pass Details

Date: 15 November 2019
Orbit: 455 x 507 km, 97.2° (Epoch: 13 December)

Event Time Altitude Azimuth Distance (km) Brightness Sun altitude
Rises 04:41:26 0° 32° (NNE) 2,624 10.7 -24.1°
Reaches altitude 10° 04:44:49 10° 65° (ENE) 1,728 10.2 -23.5°
Maximum altitude 04:46:14 12° 88° (E) 1,612 10.3 -23.3°
Drops below altitude 10° 04:47:38 10° 110° (ESE) 1,717 10.3 -23.1°
Sets 04:50:58 0° 143° (SE) 2,585 10.8 -22.5°
